Las Vegas, NV

7:34 AM PDT on April 29, 2017 (GMT -0700)
McCarran International

Weather History for KLAS - February, 2012

Change the Weather History Date:

Tuesday, February 7, 2012

  Actual Average Record
Temperature  
Mean Temperature 52 °F 51 °F  
Max Temperature 58 °F 61 °F 78 °F (2015)
Min Temperature 46 °F 42 °F 16 °F (1989)
Degree Days  
Heating Degree Days 13 14  
Month to date heating degree days 89 100  
Since 1 July heating degree days 1434 1452  
Cooling Degree Days 0 0  
Month to date cooling degree days 0 0  
Year to date cooling degree days 0 0  
Growing Degree Days 2 (Base 50)    
Moisture  
Dew Point 17 °F    
Average Humidity 28    
Maximum Humidity 34    
Minimum Humidity 21    
Precipitation  
Precipitation 0.00 in 0.02 in 0.58 in (2009)
Month to date precipitation 0.00 0.15  
Year to date precipitation T 0.69  
Snow  
Snow 0.00 in 0.00 in T in (1949)
Month to date snowfall 0.0 0.0  
Since 1 July snowfall 0.0 0.2  
Snow Depth 0.00 in    
Sea Level Pressure  
Sea Level Pressure 30.03 in    
Wind  
Wind Speed 3 mph (South)    
Max Wind Speed 12 mph    
Max Gust Speed 14 mph    
Visibility 10 miles    
Events      
T = Trace of Precipitation, MM = Missing Value Source: NWS Daily Summary

Daily Weather History Graph

Daily Weather History Graph

Search for Another Location

Airport or City:

Trip Planner

Search our weather history database for the weather conditions in past years. The results will help you decide how hot, cold, wet, or windy it might be!

Date:

Astronomy

Feb. 07, 2012 Rise Set
Actual Time 6:36 AM PST 5:13 PM PST
Civil Twilight 6:09 AM PST 5:40 PM PST
Nautical Twilight 5:39 AM PST 6:10 PM PST
Astronomical Twilight 5:09 AM PST 6:40 PM PST
Moon 5:27 PM PST (2/7) 6:09 AM PST (2/7)
Length of Visible Light 11h 30m
Length of Day
10h 36m
Full, 100% of the Moon is Illuminated
Feb 7
Full
Feb 7
Full
Feb 14
Last Quarter
Feb 21
New
Feb 29
First Quarter

Hourly Weather History & Observations

Time (PST) Temp. Windchill Dew Point Humidity Pressure Visibility Wind Dir Wind Speed Gust Speed Precip Events Conditions
12:56 AM 46.0 °F 41.4 °F 19.0 °F 34% 30.06 in 10.0 mi SSW 9.2 mph - N/A   Overcast
1:56 AM 48.0 °F - 18.0 °F 30% 30.05 in 10.0 mi Calm Calm - N/A   Overcast
2:56 AM 48.0 °F - 17.1 °F 29% 30.04 in 10.0 mi Calm Calm - N/A   Overcast
3:56 AM 46.9 °F - 16.0 °F 29% 30.04 in 10.0 mi Variable 4.6 mph - N/A   Overcast
4:56 AM 46.9 °F - 16.0 °F 29% 30.04 in 10.0 mi Calm Calm - N/A   Overcast
5:56 AM 46.9 °F - 15.1 °F 28% 30.05 in 10.0 mi Calm Calm - N/A   Mostly Cloudy
6:56 AM 48.0 °F - 16.0 °F 28% 30.06 in 10.0 mi SSW 4.6 mph - N/A   Overcast
7:56 AM 48.9 °F - 16.0 °F 27% 30.06 in 10.0 mi Calm Calm - N/A   Overcast
8:56 AM 51.1 °F - 18.0 °F 27% 30.07 in 10.0 mi NE 4.6 mph - N/A   Overcast
9:56 AM 52.0 °F - 18.0 °F 26% 30.07 in 10.0 mi NE 8.1 mph - N/A   Overcast
10:56 AM 55.0 °F - 18.0 °F 23% 30.06 in 10.0 mi SE 3.5 mph - N/A   Mostly Cloudy
11:56 AM 55.9 °F - 18.0 °F 23% 30.03 in 10.0 mi Variable 4.6 mph - N/A   Overcast
12:56 PM 55.9 °F - 18.0 °F 23% 30.01 in 10.0 mi Calm Calm - N/A   Mostly Cloudy
1:56 PM 57.0 °F - 17.1 °F 21% 29.99 in 10.0 mi Calm Calm - N/A   Overcast
2:56 PM 57.0 °F - 17.1 °F 21% 29.98 in 10.0 mi Calm Calm - N/A   Overcast
3:56 PM 57.9 °F - 17.1 °F 20% 29.97 in 10.0 mi Calm Calm - N/A   Overcast
4:56 PM 57.9 °F - 17.1 °F 20% 29.97 in 10.0 mi Calm Calm - N/A   Overcast
5:56 PM 57.0 °F - 17.1 °F 21% 29.99 in 10.0 mi Calm Calm - N/A   Overcast
6:56 PM 55.9 °F - 18.0 °F 23% 29.99 in 10.0 mi Calm Calm - N/A   Overcast
7:56 PM 55.9 °F - 18.0 °F 23% 30.01 in 10.0 mi SSW 6.9 mph - N/A   Overcast
8:56 PM 55.9 °F - 18.0 °F 23% 30.02 in 10.0 mi SSW 5.8 mph - N/A   Overcast
9:56 PM 54.0 °F - 18.0 °F 24% 30.04 in 10.0 mi SW 8.1 mph - N/A   Overcast
10:56 PM 55.9 °F - 21.0 °F 26% 30.01 in 10.0 mi West 6.9 mph - N/A   Overcast
11:56 PM 54.0 °F - 19.0 °F 25% 30.02 in 10.0 mi SSE 4.6 mph - N/A   Overcast